EW9366 Weather Reports


Display with metric or nautical units.
time (UTC)temp
F
wind
direction
speed
MPH
gust
MPH
rain 1hr
in
rain 24hr
in
rain mn
in
humidity
%
barometer
mb
20240303203933 78 34 4.0 11.0 0.00 0.00 0.00 50 1007.0
20240303203651 77 69 4.0 11.0 0.00 0.00 0.00 51 1007.0
20240303203138 77 114 5.0 11.0 0.00 0.00 0.00 50 1007.0
20240303202639 77 319 5.0 11.0 0.00 0.00 0.00 51 1007.1
20240303201912 77 209 5.0 11.0 0.00 0.00 0.00 52 1007.1
20240303201413 77 250 5.0 11.0 0.00 0.00 0.00 54 1007.1
20240303201342 77 46 5.0 11.0 0.00 0.00 0.00 53 1007.2
20240303200339 77 277 5.0 11.0 0.00 0.00 0.00 52 1007.3
20240303195835 77 231 4.0 10.0 0.00 0.00 0.00 52 1007.3
20240303195308 77 253 4.0 10.0 0.00 0.00 0.00 52 1007.4
20240303194744 77 61 4.0 9.0 0.00 0.00 0.00 53 1007.4
20240303194238 76 229 4.0 10.0 0.00 0.00 0.00 54 1007.5
20240303193735 76 131 5.0 10.0 0.00 0.00 0.00 54 1007.5
20240303193208 76 146 4.0 9.0 0.00 0.00 0.00 54 1007.7
20240303192706 76 104 4.0 10.0 0.00 0.00 0.00 55 1007.8
20240303192203 76 87 5.0 10.0 0.00 0.00 0.00 54 1008.0
20240303191920 76 91 4.0 11.0 0.00 0.00 0.00 53 1008.0
20240303191159 76 77 5.0 11.0 0.00 0.00 0.00 55 1008.1
20240303190857 76 248 5.0 11.0 0.00 0.00 0.00 55 1008.1
20240303190131 76 262 5.0 11.0 0.00 0.00 0.00 54 1008.3
20240303185632 75 114 5.0 11.0 0.00 0.00 0.00 56 1008.4
20240303185133 75 97 5.0 12.0 0.00 0.00 0.00 54 1008.5
20240303184632 76 212 4.0 12.0 0.00 0.00 0.00 54 1008.6
20240303184115 76 206 4.0 9.0 0.00 0.00 0.00 54 1008.6
20240303183546 76 181 4.0 9.0 0.00 0.00 0.00 56 1008.8
20240303183043 75 148 4.0 8.0 0.00 0.00 0.00 56 1009.0
20240303182516 75 191 4.0 8.0 0.00 0.00 0.00 55 1009.1
20240303182013 74 49 5.0 14.0 0.00 0.00 0.00 56 1009.0
20240303181929 74 222 5.0 14.0 0.00 0.00 0.00 57 1009.1
20240303181206 74 196 4.0 11.0 0.00 0.00 0.00 55 1009.1
20240303180442 74 217 5.0 12.0 0.00 0.00 0.00 57 1009.3
20240303175916 74 186 6.0 12.0 0.00 0.00 0.00 56 1009.5
20240303175350 74 182 4.0 11.0 0.00 0.00 0.00 56 1009.5
20240303174823 74 219 4.0 11.0 0.00 0.00 0.00 56 1009.6
20240303174319 74 228 5.0 11.0 0.00 0.00 0.00 58 1009.6
20240303173753 73 214 5.0 11.0 0.00 0.00 0.00 58 1009.6
20240303173227 73 167 5.0 11.0 0.00 0.00 0.00 57 1009.6
20240303172701 73 288 5.0 15.0 0.00 0.00 0.00 57 1009.6
20240303172159 73 154 6.0 15.0 0.00 0.00 0.00 60 1009.7
20240303171908 73 187 5.0 10.0 0.00 0.00 0.00 58 1009.6
20240303171146 73 190 5.0 9.0 0.00 0.00 0.00 59 1009.6
20240303170845 72 110 5.0 11.0 0.00 0.00 0.00 61 1009.6
20240303170116 72 220 5.0 11.0 0.00 0.00 0.00 60 1009.6
20240303165614 72 139 5.0 11.0 0.00 0.00 0.00 60 1009.6
20240303165046 72 219 5.0 13.0 0.00 0.00 0.00 60 1009.7
20240303164533 72 234 5.0 13.0 0.00 0.00 0.00 60 1009.8
20240303164034 73 214 4.0 9.0 0.00 0.00 0.00 60 1009.8
20240303163755 72 249 4.0 11.0 0.00 0.00 0.00 61 1009.8
20240303163034 72 285 3.0 11.0 0.00 0.00 0.00 61 1009.8
20240303162533 71 226 4.0 11.0 0.00 0.00 0.00 63 1009.8
20240303162014 71 206 5.0 11.0 0.00 0.00 0.00 62 1009.8
20240303161514 71 186 4.0 10.0 0.00 0.00 0.00 61 1009.9
20240303161013 71 127 4.0 11.0 0.00 0.00 0.00 63 1009.8
20240303160515 70 201 5.0 11.0 0.00 0.00 0.00 63 1009.9
20240303155951 70 217 4.0 10.0 0.00 0.00 0.00 63 1009.8
20240303155651 70 195 4.0 10.0 0.00 0.00 0.00 64 1009.9
20240303154917 70 233 4.0 10.0 0.00 0.00 0.00 63 1009.9
20240303154413 69 259 4.0 11.0 0.00 0.00 0.00 64 1009.8
20240303153904 69 267 4.0 11.0 0.00 0.00 0.00 64 1009.7
20240303153338 69 136 3.0 9.0 0.00 0.00 0.00 65 1009.6
20240303152835 69 207 3.0 10.0 0.00 0.00 0.00 65 1009.6
20240303152332 68 235 4.0 10.0 0.00 0.00 0.00 66 1009.5
20240303151806 68 127 4.0 11.0 0.00 0.00 0.00 66 1009.5
20240303151238 68 89 4.0 9.0 0.00 0.00 0.00 66 1009.7
20240303151002 68 97 4.0 9.0 0.00 0.00 0.00 67 1009.5
20240303150214 68 193 3.0 9.0 0.00 0.00 0.00 66 1009.5
20240303145706 68 285 2.0 6.0 0.00 0.00 0.00 67 1009.4
20240303145139 67 240 2.0 7.0 0.00 0.00 0.00 67 1009.3
20240303144636 67 288 2.0 7.0 0.00 0.00 0.00 67 1009.4
20240303144106 66 124 2.0 8.0 0.00 0.00 0.00 70 1009.4
20240303143606 66 77 2.0 8.0 0.00 0.00 0.00 70 1009.4
20240303143036 65 44 2.0 6.0 0.00 0.00 0.00 72 1009.4
20240303142535 64 80 2.0 7.0 0.00 0.00 0.00 72 1009.4
20240303142008 64 124 2.0 7.0 0.00 0.00 0.00 73 1009.3
20240303141441 63 77 2.0 5.0 0.00 0.00 0.00 73 1009.4
20240303140938 63 99 1.0 5.0 0.00 0.00 0.00 74 1009.3
20240303140708 63 97 1.0 4.0 0.00 0.00 0.00 75 1009.3
20240303135936 62 111 1.0 4.0 0.00 0.00 0.00 75 1009.3
20240303135433 62 108 1.0 4.0 0.00 0.00 0.00 76 1009.3
20240303135153 61 176 1.0 4.0 0.00 0.00 0.00 78 1009.3
20240303134424 60 106 1.0 5.0 0.00 0.00 0.00 79 1009.2
20240303133858 60 34 1.0 3.0 0.00 0.00 0.00 79 1009.2
20240303133554 59 40 1.0 3.0 0.00 0.00 0.00 80 1009.2
20240303132832 58 134 1.0 4.0 0.00 0.00 0.00 81 1009.2
20240303132306 58 127 1.0 4.0 0.00 0.00 0.00 82 1009.2
20240303131803 57 134 1.0 3.0 0.00 0.00 0.00 83 1009.1
20240303131459 56 120 1.0 3.0 0.00 0.00 0.00 84 1009.2
20240303130708 56 134 1.0 5.0 0.00 0.00 0.00 85 1009.1
20240303130207 56 85 1.0 5.0 0.00 0.00 0.00 85 1009.2
20240303125639 55 93 1.0 3.0 0.00 0.00 0.00 85 1009.2
20240303125115 56 102 1.0 3.0 0.00 0.00 0.00 85 1009.2
20240303124614 56 142 1.0 4.0 0.00 0.00 0.00 84 1009.3
20240303124116 56 101 2.0 4.0 0.00 0.00 0.00 85 1009.2
20240303123605 56 81 2.0 4.0 0.00 0.00 0.00 85 1009.2
20240303123105 56 37 1.0 4.0 0.00 0.00 0.00 85 1009.2
20240303122605 56 103 1.0 3.0 0.00 0.00 0.00 85 1009.1
20240303122036 56 98 1.0 6.0 0.00 0.00 0.00 85 1009.2
20240303121536 56 203 1.0 6.0 0.00 0.00 0.00 84 1009.3
20240303121035 56 122 1.0 5.0 0.00 0.00 0.00 85 1009.2
20240303120528 56 127 2.0 5.0 0.00 0.00 0.00 84 1009.2
20240303120238 56 94 2.0 4.0 0.00 0.00 0.00 84 1009.2
20240303115430 56 124 2.0 5.0 0.00 0.00 0.00 84 1009.2
20240303114926 57 84 1.0 5.0 0.00 0.00 0.00 84 1009.2
20240303114424 57 174 2.0 8.0 0.00 0.00 0.00 83 1009.2
20240303113921 57 93 2.0 8.0 0.00 0.00 0.00 83 1009.2
20240303113414 57 113 1.0 6.0 0.00 0.00 0.00 84 1009.1
20240303112912 57 328 1.0 6.0 0.00 0.00 0.00 83 1009.1
20240303112345 57 199 2.0 6.0 0.00 0.00 0.00 84 1009.1
20240303112041 57 215 2.0 6.0 0.00 0.00 0.00 83 1009.0
20240303111252 57 68 2.0 5.0 0.00 0.00 0.00 83 1009.1
20240303110751 57 101 2.0 7.0 0.00 0.00 0.00 84 1009.1
20240303110223 57 124 2.0 7.0 0.00 0.00 0.00 84 1009.1
20240303105947 57 115 2.0 5.0 0.00 0.00 0.00 84 1009.0
20240303105149 57 89 2.0 6.0 0.00 0.00 0.00 84 1009.0
20240303104622 57 46 2.0 7.0 0.00 0.00 0.00 83 1009.0
20240303104118 57 63 2.0 5.0 0.00 0.00 0.00 83 1009.0
20240303103554 57 71 2.0 6.0 0.00 0.00 0.00 83 1009.1
20240303103027 57 115 2.0 6.0 0.00 0.00 0.00 83 1009.0
20240303102522 57 179 2.0 6.0 0.00 0.00 0.00 84 1009.0
20240303101955 56 134 2.0 7.0 0.00 0.00 0.00 84 1009.1
20240303101429 56 92 2.0 7.0 0.00 0.00 0.00 85 1009.1
20240303100914 56 183 1.0 4.0 0.00 0.00 0.00 84 1009.1
20240303100415 55 91 1.0 3.0 0.00 0.00 0.00 84 1009.2
20240303095914 55 103 1.0 5.0 0.00 0.00 0.00 84 1009.3
20240303095412 55 117 1.0 5.0 0.00 0.00 0.00 83 1009.3
20240303094848 55 151 0.0 3.0 0.00 0.00 0.00 83 1009.5
20240303094346 55 91 0.0 3.0 0.00 0.00 0.00 83 1009.4
20240303094109 56 224 0.0 3.0 0.00 0.00 0.00 83 1009.5
20240303093315 56 118 0.0 2.0 0.00 0.00 0.00 82 1009.4
20240303092748 56 184 1.0 4.0 0.00 0.00 0.00 81 1009.6
20240303092248 56 162 1.0 4.0 0.00 0.00 0.00 81 1009.5
20240303091743 56 102 1.0 4.0 0.00 0.00 0.00 82 1009.5
20240303091240 56 93 1.0 4.0 0.00 0.00 0.00 81 1009.5
20240303090712 56 144 1.0 4.0 0.00 0.00 0.00 82 1009.4
20240303090211 56 82 1.0 4.0 0.00 0.00 0.00 81 1009.4
20240303085643 56 171 1.0 3.0 0.00 0.00 0.00 81 1009.7
20240303085139 57 82 1.0 4.0 0.00 0.00 0.00 81 1009.7
20240303084636 57 106 1.0 4.0 0.00 0.00 0.00 80 1009.7
20240303084335 57 54 1.0 4.0 0.00 0.00 0.00 81 1009.8
20240303083543 57 136 1.0 3.0 0.00 0.00 0.00 80 1009.9
20240303083303 57 75 1.0 3.0 0.00 0.00 0.00 81 1009.9
20240303082737 57 53 1.0 3.0 0.00 0.00 0.00 80 1009.9
20240303081951 57 97 1.0 3.0 0.00 0.00 0.00 80 1009.9
20240303081437 57 103 1.0 4.0 0.00 0.00 0.00 80 1010.0
20240303080938 58 115 1.0 7.0 0.00 0.00 0.00 80 1009.9
20240303080701 58 139 1.0 7.0 0.00 0.00 0.00 79 1009.9
20240303075934 58 131 1.0 6.0 0.00 0.00 0.00 79 1009.9
20240303075434 58 51 2.0 6.0 0.00 0.00 0.00 79 1010.0
20240303074922 58 94 2.0 5.0 0.00 0.00 0.00 79 1010.0
20240303074403 58 115 2.0 5.0 0.00 0.00 0.00 79 1010.1
20240303074122 58 84 2.0 5.0 0.00 0.00 0.00 78 1010.2
20240303073403 58 107 1.0 5.0 0.00 0.00 0.00 78 1010.2
20240303072839 59 80 2.0 6.0 0.00 0.00 0.00 77 1010.2
20240303072326 59 97 2.0 6.0 0.00 0.00 0.00 78 1010.1
20240303071825 59 89 2.0 4.0 0.00 0.00 0.00 77 1010.2
20240303071531 59 102 2.0 7.0 0.00 0.00 0.00 77 1010.1
20240303071009 59 107 2.0 7.0 0.00 0.00 0.00 77 1010.1
20240303070222 59 307 1.0 6.0 0.00 0.00 0.00 77 1010.1
20240303065927 59 109 2.0 7.0 0.00 0.00 0.00 76 1010.3
20240303065146 60 82 2.0 7.0 0.00 0.00 0.00 76 1010.2
20240303064623 60 204 2.0 8.0 0.00 0.00 0.00 76 1010.2
20240303064104 60 124 2.0 8.0 0.00 0.00 0.00 75 1010.2
20240303063607 60 53 2.0 9.0 0.00 0.00 0.00 75 1010.0
20240303063054 60 148 2.0 9.0 0.00 0.00 0.00 75 1010.0
20240303062555 60 15 2.0 5.0 0.00 0.00 0.00 75 1010.2
20240303062255 60 240 2.0 6.0 0.00 0.00 0.00 75 1010.0
20240303061741 60 13 2.0 6.0 0.00 0.00 0.00 75 1010.1
20240303061013 61 54 2.0 6.0 0.00 0.00 0.00 74 1010.1
20240303060505 61 20 3.0 7.0 0.00 0.00 0.00 74 1010.0
20240303060004 61 146 2.0 6.0 0.00 0.00 0.00 74 1010.1
20240303055441 61 197 2.0 6.0 0.00 0.00 0.00 74 1010.1
20240303054941 61 94 2.0 6.0 0.00 0.00 0.00 74 1010.0
20240303054415 61 52 2.0 6.0 0.00 0.00 0.00 73 1010.0
20240303053917 61 163 2.0 4.0 0.00 0.00 0.00 73 1010.0
20240303053412 62 217 3.0 8.0 0.00 0.00 0.00 73 1010.0
20240303052909 62 71 3.0 8.0 0.00 0.00 0.00 73 1010.0
20240303052411 62 91 3.0 10.0 0.00 0.00 0.00 72 1010.0
20240303051844 62 117 3.0 10.0 0.00 0.00 0.00 72 1010.0
20240303051335 62 259 3.0 7.0 0.00 0.00 0.00 72 1010.0
20240303050837 62 103 3.0 9.0 0.00 0.00 0.00 72 1009.9
20240303050319 62 330 3.0 9.0 0.00 0.00 0.00 72 1009.9
20240303045800 62 108 3.0 10.0 0.00 0.00 0.00 72 1010.0
20240303045300 62 93 3.0 10.0 0.00 0.00 0.00 72 1010.0
20240303044738 62 196 2.0 8.0 0.00 0.00 0.00 72 1010.0
20240303044221 62 174 3.0 8.0 0.00 0.00 0.00 72 1010.0
20240303043930 62 110 3.0 9.0 0.00 0.00 0.00 71 1010.1
20240303043205 62 114 2.0 9.0 0.00 0.00 0.00 71 1010.1
20240303042659 62 75 3.0 9.0 0.00 0.00 0.00 70 1010.1
20240303042132 62 126 3.0 9.0 0.00 0.00 0.00 70 1010.2
20240303041610 62 305 3.0 7.0 0.00 0.00 0.00 70 1010.2
20240303041537 62 105 2.0 8.0 0.00 0.00 0.00 70 1010.2
20240303040553 62 128 2.0 8.0 0.00 0.00 0.00 69 1010.3
20240303040053 62 115 2.0 6.0 0.00 0.00 0.00 69 1010.2
20240303035553 62 176 2.0 7.0 0.00 0.00 0.00 69 1010.2
20240303035030 62 19 2.0 7.0 0.00 0.00 0.00 70 1010.4
20240303034507 62 115 2.0 7.0 0.00 0.00 0.00 69 1010.2
20240303033936 62 84 3.0 7.0 0.00 0.00 0.00 69 1010.3
20240303033420 62 294 3.0 10.0 0.00 0.00 0.00 69 1010.3
20240303033113 62 99 2.0 10.0 0.00 0.00 0.00 69 1010.4
20240303032556 62 95 2.0 9.0 0.00 0.00 0.00 69 1010.4
20240303031830 62 83 2.0 9.0 0.00 0.00 0.00 69 1010.3
20240303031326 62 316 2.0 8.0 0.00 0.00 0.00 69 1010.4
20240303031040 62 68 2.0 8.0 0.00 0.00 0.00 69 1010.4
20240303030754 62 144 2.0 6.0 0.00 0.00 0.00 69 1010.4
20240303025816 62 120 2.0 6.0 0.00 0.00 0.00 68 1010.4
20240303025316 62 239 2.0 7.0 0.00 0.00 0.00 68 1010.4
20240303024815 62 75 2.0 7.0 0.00 0.00 0.00 68 1010.4
20240303024246 62 89 2.0 7.0 0.00 0.00 0.00 68 1010.3
20240303023723 62 114 2.0 7.0 0.00 0.00 0.00 68 1010.3
20240303023222 62 245 2.0 7.0 0.00 0.00 0.00 68 1010.4
20240303022656 62 115 2.0 7.0 0.00 0.00 0.00 69 1010.4
20240303022129 61 104 2.0 4.0 0.00 0.00 0.00 69 1010.4
20240303021606 61 70 1.0 4.0 0.00 0.00 0.00 69 1010.4
20240303021109 61 150 1.0 4.0 0.00 0.00 0.00 70 1010.4
20240303020550 61 112 0.0 3.0 0.00 0.00 0.00 69 1010.3
20240303020048 62 153 1.0 2.0 0.00 0.00 0.00 68 1010.4
20240303015546 62 150 1.0 2.0 0.00 0.00 0.00 68 1010.4
20240303015043 62 100 1.0 3.0 0.00 0.00 0.00 67 1010.4
20240303014540 62 113 1.0 3.0 0.00 0.00 0.00 67 1010.4
20240303014012 63 70 1.0 3.0 0.00 0.00 0.00 66 1010.5
20240303013511 63 56 1.0 3.0 0.00 0.00 0.00 65 1010.5
20240303012944 64 101 2.0 5.0 0.00 0.00 0.00 64 1010.5
20240303012440 64 124 2.0 6.0 0.00 0.00 0.00 64 1010.4
20240303011937 64 102 2.0 6.0 0.00 0.00 0.00 64 1010.4
20240303011411 64 14 2.0 6.0 0.00 0.00 0.00 63 1010.4
20240303011342 64 55 1.0 4.0 0.00 0.00 0.00 63 1010.5
20240303010405 65 131 2.0 5.0 0.00 0.00 0.00 62 1010.4
20240303005900 65 124 2.0 6.0 0.00 0.00 0.00 61 1010.3
20240303005358 65 76 3.0 6.0 0.00 0.00 0.00 61 1010.3
20240303004855 65 99 2.0 6.0 0.00 0.00 0.00 61 1010.3
20240303004354 65 190 2.0 5.0 0.00 0.00 0.00 61 1010.3
20240303004048 66 4 2.0 6.0 0.00 0.00 0.00 60 1010.4
20240303003323 65 236 2.0 6.0 0.00 0.00 0.00 60 1010.2
20240303002820 66 62 2.0 4.0 0.00 0.00 0.00 60 1010.2
20240303002254 66 117 2.0 6.0 0.00 0.00 0.00 59 1010.1
20240303001751 67 101 2.0 6.0 0.00 0.00 0.00 59 1010.2
20240303001224 67 181 2.0 5.0 0.00 0.00 0.00 58 1010.2
20240303000654 67 36 2.0 5.0 0.00 0.00 0.00 57 1010.1
20240303000148 68 135 2.0 6.0 0.00 0.00 0.00 56 1010.2
20240302235642 69 193 3.0 7.0 0.00 0.00 0.00 56 1010.2
20240302235344 69 80 3.0 7.0 0.00 0.00 0.00 54 1010.3
20240302234614 70 79 3.0 8.0 0.00 0.00 0.00 54 1010.1
20240302234111 70 127 3.0 8.0 0.00 0.00 0.00 53 1010.1
20240302233545 71 87 3.0 7.0 0.00 0.00 0.00 52 1010.2
20240302233510 71 54 3.0 8.0 0.00 0.00 0.00 52 1010.1
20240302232452 72 91 3.0 8.0 0.00 0.00 0.00 50 1010.1
20240302231926 72 101 3.0 8.0 0.00 0.00 0.00 49 1010.0
20240302231407 72 84 4.0 11.0 0.00 0.00 0.00 48 1010.0
20240302230842 73 65 4.0 9.0 0.00 0.00 0.00 47 1010.1
20240302230314 73 176 4.0 10.0 0.00 0.00 0.00 47 1010.1
20240302225811 73 214 3.0 10.0 0.00 0.00 0.00 47 1010.1
20240302225305 73 84 3.0 9.0 0.00 0.00 0.00 47 1010.2
20240302224803 73 190 4.0 11.0 0.00 0.00 0.00 47 1010.0
20240302224242 73 146 5.0 11.0 0.00 0.00 0.00 47 1010.0
20240302223740 73 63 4.0 10.0 0.00 0.00 0.00 46 1010.0
20240302223238 74 232 4.0 10.0 0.00 0.00 0.00 47 1010.0
20240302223224 74 350 4.0 10.0 0.00 0.00 0.00 47 1009.9
20240302222429 74 89 3.0 9.0 0.00 0.00 0.00 47 1010.1
20240302221707 74 283 3.0 10.0 0.00 0.00 0.00 47 1009.9
20240302221205 74 324 4.0 10.0 0.00 0.00 0.00 47 1010.0
20240302220639 74 216 4.0 11.0 0.00 0.00 0.00 45 1010.0
20240302220114 75 190 4.0 11.0 0.00 0.00 0.00 47 1010.0
20240302215612 75 222 3.0 7.0 0.00 0.00 0.00 46 1010.1
20240302215058 75 107 3.0 9.0 0.00 0.00 0.00 46 1010.3
20240302214557 75 224 4.0 10.0 0.00 0.00 0.00 45 1010.2
20240302214057 75 285 4.0 11.0 0.00 0.00 0.00 45 1010.1
20240302213530 75 113 4.0 11.0 0.00 0.00 0.00 44 1010.2
20240302213003 75 127 4.0 11.0 0.00 0.00 0.00 44 1010.3
20240302212500 76 239 4.0 11.0 0.00 0.00 0.00 44 1010.3
20240302211935 76 81 4.0 10.0 0.00 0.00 0.00 43 1010.4
20240302211408 76 319 4.0 10.0 0.00 0.00 0.00 43 1010.4
20240302210904 76 55 4.0 9.0 0.00 0.00 0.00 42 1010.5
20240302210624 76 345 4.0 10.0 0.00 0.00 0.00 43 1010.6
20240302210258 76 96 4.0 11.0 0.00 0.00 0.00 42 1010.7
20240302205924 76 271 4.0 11.0 0.00 0.00 0.00 42 1010.6
20240302204806 76 242 4.0 8.0 0.00 0.00 0.00 43 1010.8
20240302204238 76 106 3.0 13.0 0.00 0.00 0.00 42 1010.8